User: anonymous   Login
Location: Unspecified
(0.0000°N, 0.0000°E)
Time: 04:15:31
(UTC+00:00)
Language:

STSS DEMO 2 (USA 209) - Orbit

View from above orbital plane
View from above orbital plane
View from above satellite
View from above satellite

Ground track
Ground track

The orbit data is extracted from the following two-line orbital elements,

1 35938U 09052B   17141.88831633 0.00000010  00000-0  44245-4 0    05
2 35938  57.9896  94.9957 0012152 270.3498  89.6502 12.79326785    01
Epoch (UTC): 21 May 2017 21:19:10
Eccentricity: 0.0012152
inclination: 57.9896°
perigee height: 1335 km
apogee height: 1353 km
right ascension of ascending node: 94.9957°
argument of perigee: 270.3498°
revolutions per day: 12.79326785
mean anomaly at epoch: 89.6502°
orbit number at epoch: 0

The dashed part of the orbit path shows where the satellite is in the earth's shadow,  

DLR